World > North America > United States > Alaska   City of Kenai, AK
Hourly Weather in Kenai, AlaskaKenai, Alaska Hourly Weather

Kenai, AK Hourly Weather

Hourly Weather Kenai, AlaskaHourly Weather in Kenai, AK
Lat: 60.55N, Lon: 151.21W  ICAO: PAEN
Web Search

Ads allow us to feed your daily addiction for the world's greatest weather information. We're determined to offer quality sponsors, in the least annoying way possible.

Feedback

Kenai Hourly Weather

36 Hour Weather Scroll   °F Click to change Kenai hourly weather to Imperial units.Click to change Kenai hourly weather to Metric units. °C
Currently, Overcast, temperature is 40°F4°C, dew point 32°F0°C, humidity 73%. Wind direction is NNE at 21 mph34 km/h with visibility of 10.00 mi16 km. Barometric pressure is 29.09 in985 mb.

Oct 19
2:00 PM

Oct 19
3:00 PM

Oct 19
4:00 PM

Oct 19
5:00 PM

Oct 19
6:00 PM

Oct 19
7:00 PM

Oct 19
8:00 PM

Oct 19
9:00 PM

Oct 19
10:00 PM

Oct 19
11:00 PM

Oct 20
MIDNIGHT

Oct 20
1:00 AM

Oct 20
2:00 AM

Oct 20
3:00 AM

Oct 20
4:00 AM

Oct 20
5:00 AM

Oct 20
6:00 AM

Oct 20
7:00 AM

Oct 20
8:00 AM

Oct 20
9:00 AM

Oct 20
10:00 AM

Oct 20
11:00 AM

Oct 20
NOON

Oct 20
1:00 PM

Oct 20
2:00 PM

Oct 20
3:00 PM

Oct 20
4:00 PM

Oct 20
5:00 PM

Oct 20
6:00 PM

Oct 20
7:00 PM

Oct 20
8:00 PM

Oct 20
9:00 PM

Oct 20
10:00 PM

Oct 20
11:00 PM

Oct 21
MIDNIGHT

Oct 21
1:00 AM
Cloudy Cloudy Cloudy Cloudy Cloudy Cloudy Cloudy Cloudy Cloudy Cloudy Cloudy Cloudy Cloudy Cloudy Cloudy Cloudy Cloudy Cloudy Cloudy Cloudy Cloudy Cloudy Cloudy Cloudy Cloudy Cloudy Cloudy Cloudy Cloudy Cloudy Cloudy Cloudy Cloudy Cloudy Cloudy Cloudy
Cloudy Cloudy Cloudy Cloudy Cloudy Cloudy Cloudy Cloudy Cloudy Cloudy Cloudy Cloudy Cloudy Cloudy Cloudy Cloudy Cloudy Cloudy Cloudy Cloudy Cloudy Cloudy Cloudy Cloudy Cloudy Cloudy Cloudy Cloudy Cloudy Cloudy Cloudy Cloudy Cloudy Cloudy Cloudy Cloudy
39°F4°C 40°F4°C 40°F4°C 40°F4°C 39°F4°C 39°F4°C 39°F4°C 38°F3°C 38°F3°C 38°F3°C 37°F3°C 37°F3°C 37°F3°C 36°F2°C 36°F2°C 36°F2°C 36°F2°C 36°F2°C 36°F2°C 37°F3°C 37°F3°C 38°F3°C 39°F4°C 40°F4°C 40°F4°C 41°F5°C 41°F5°C 40°F4°C 40°F4°C 39°F4°C 38°F3°C 37°F3°C 36°F2°C 36°F2°C 35°F2°C 35°F2°C
Rain Rain Rain Rain Rain Rain Rain Rain Rain Rain Rain Rain Rain Rain Rain Rain Rain Rain Rain Rain Rain - - - - - - Rain Rain Rain Rain Rain Rain Rain Rain Rain
40% 40% 40% 72% 72% 72% 72% 72% 72% 73% 73% 73% 73% 73% 73% 41% 41% 41% 41% 41% 41% 20% 20% 20% 20% 20% 20% 42% 42% 42% 42% 42% 42% 48% 48% 48%
33°F1°C 34°F1°C 34°F1°C 34°F1°C 35°F2°C 35°F2°C 35°F2°C 35°F2°C 35°F2°C 35°F2°C 35°F2°C 35°F2°C 35°F2°C 35°F2°C 35°F2°C 35°F2°C 35°F2°C 35°F2°C 35°F2°C 36°F2°C 36°F2°C 37°F3°C 37°F3°C 38°F3°C 38°F3°C 38°F3°C 38°F3°C 38°F3°C 37°F3°C 37°F3°C 37°F3°C 36°F2°C 36°F2°C 36°F2°C 35°F2°C 35°F2°C
79% 79% 79% 79% 85% 85% 85% 89% 89% 89% 92% 92% 92% 96% 96% 96% 96% 96% 96% 96% 96% 96% 92% 92% 92% 89% 89% 92% 89% 92% 96% 96% 100% 100% 100% 100%
NE NE NE NE NE NE NE ENE ENE E E E E NE NE NE NE NE NE NNE NNE NNE N N N N N ENE SE S S SSE SSE SE SE SE
16 mph 16 mph 16 mph 16 mph 8 mph 8 mph 8 mph 6 mph 6 mph 6 mph 3 mph 3 mph 3 mph 3 mph 3 mph 3 mph 4 mph 4 mph 4 mph 6 mph 6 mph 6 mph 7 mph 7 mph 7 mph 6 mph 6 mph 6 mph 2 mph 2 mph 2 mph 1 mph 1 mph 1 mph 3 mph 3 mph
5 mi8 km 5 mi8 km 5 mi8 km 6 mi10 km 6 mi10 km 10 mi16 km 10 mi16 km 6 mi10 km 6 mi10 km 6 mi10 km 5 mi8 km 5 mi8 km 5 mi8 km 5 mi8 km 5 mi8 km 5 mi8 km 3 mi5 km 3 mi5 km 5 mi8 km 6 mi10 km 10 mi16 km 10 mi16 km 10 mi16 km 10 mi16 km 10 mi16 km 10 mi16 km 10 mi16 km 10 mi16 km 10 mi16 km 10 mi16 km 10 mi16 km 6 mi10 km 6 mi10 km 6 mi10 km 6 mi10 km 6 mi10 km
Hour (ADT)
Weather
Clouds
Temperature
Precip. Type
POP
Dewpoint
Humidity
Wind Direction
Wind Speed
Visibility
POP = Probability of Precipitation. ** Indicates missing data/values from model statistics.

24 Hour Forecast

Today - Cloudy. A slight chance of rain and snow in the morning, then scattered rain showers in the afternoon. Highs in the 40s. North wind 10 to 20 mph.
Tonight - Cloudy with a chance of rain. Lows in the 30s. East wind 10 to 25 mph becoming variable 10 mph after midnight. Around kachemak bay...South wind 10 to 15 mph.

48 Hour Forecast API Feed


Tue, Oct 19
2:00 pm

Tue, Oct 19
3:00 pm

Tue, Oct 19
4:00 pm

Tue, Oct 19
5:00 pm

Tue, Oct 19
6:00 pm

Tue, Oct 19
7:00 pm

Tue, Oct 19
8:00 pm

Tue, Oct 19
9:00 pm

Tue, Oct 19
10:00 pm

Tue, Oct 19
11:00 pm

Wed, Oct 20
Midnight

Wed, Oct 20
1:00 am

Wed, Oct 20
2:00 am

Wed, Oct 20
3:00 am

Wed, Oct 20
4:00 am

Wed, Oct 20
5:00 am

Wed, Oct 20
6:00 am

Wed, Oct 20
7:00 am

Wed, Oct 20
8:00 am

Wed, Oct 20
9:00 am

Wed, Oct 20
10:00 am

Wed, Oct 20
11:00 am

Wed, Oct 20
Noon

Wed, Oct 20
1:00 pm

Wed, Oct 20
2:00 pm

Wed, Oct 20
3:00 pm

Wed, Oct 20
4:00 pm

Wed, Oct 20
5:00 pm

Wed, Oct 20
6:00 pm

Wed, Oct 20
7:00 pm

Wed, Oct 20
8:00 pm

Wed, Oct 20
9:00 pm

Wed, Oct 20
10:00 pm

Wed, Oct 20
11:00 pm

Thu, Oct 21
Midnight

Thu, Oct 21
1:00 am

Thu, Oct 21
2:00 am

Thu, Oct 21
3:00 am

Thu, Oct 21
4:00 am

Thu, Oct 21
5:00 am

Thu, Oct 21
6:00 am

Thu, Oct 21
7:00 am

Thu, Oct 21
8:00 am

Thu, Oct 21
9:00 am

Thu, Oct 21
10:00 am

Thu, Oct 21
11:00 am

Thu, Oct 21
Noon

Thu, Oct 21
1:00 pm
OvercastOvercastOvercastOvercastCloudyPartly CloudyOvercastPatchy Rain PossibleOvercastLight RainLight DrizzleLight RainLight DrizzleLight DrizzleLight RainPatchy Rain PossiblePatchy Rain PossibleLight RainLight DrizzleLight DrizzleLight RainOvercastOvercastPatchy Rain PossibleOvercastOvercastLight DrizzleOvercastCloudyLight DrizzleLight DrizzleLight DrizzleModerate RainLight SleetLight SleetModerate Or Heavy SleetLight DrizzleLight DrizzleModerate RainCloudyCloudyCloudyPartly CloudyCloudyOvercastOvercastLight DrizzlePatchy Light Drizzle
Overcast Overcast Overcast Overcast Cloudy Partly cloudy Overcast Patchy rain possible Overcast Light rain Light drizzle Light rain Light drizzle Light drizzle Light rain Patchy rain possible Patchy rain possible Light rain Light drizzle Light drizzle Light rain Overcast Overcast Patchy rain possible Overcast Overcast Light drizzle Overcast Cloudy Light drizzle Light drizzle Light drizzle Moderate rain Light sleet Light sleet Moderate sleet Light drizzle Light drizzle Moderate rain Cloudy Cloudy Cloudy Partly cloudy Cloudy Overcast Overcast Light drizzle Patchy light drizzle
42°F
5°C
43°F
6°C
43°F
6°C
44°F
7°C
45°F
7°C
44°F
7°C
43°F
6°C
42°F
5°C
41°F
5°C
40°F
5°C
41°F
5°C
41°F
5°C
41°F
5°C
41°F
5°C
41°F
5°C
41°F
5°C
40°F
5°C
40°F
4°C
40°F
5°C
40°F
4°C
39°F
4°C
39°F
4°C
40°F
4°C
40°F
4°C
41°F
5°C
42°F
5°C
42°F
6°C
42°F
5°C
41°F
5°C
40°F
5°C
39°F
4°C
38°F
4°C
38°F
3°C
37°F
3°C
37°F
3°C
37°F
3°C
37°F
3°C
38°F
3°C
38°F
3°C
37°F
3°C
37°F
3°C
37°F
3°C
36°F
2°C
36°F
2°C
37°F
3°C
38°F
3°C
39°F
4°C
41°F
5°C
31°F
-1°C
33°F
0°C
35°F
2°C
36°F
2°C
37°F
3°C
37°F
3°C
37°F
3°C
37°F
3°C
38°F
3°C
38°F
4°C
38°F
4°C
38°F
4°C
38°F
4°C
38°F
4°C
38°F
3°C
38°F
3°C
38°F
4°C
38°F
3°C
38°F
3°C
36°F
2°C
34°F
1°C
34°F
1°C
35°F
2°C
36°F
2°C
36°F
2°C
36°F
2°C
36°F
2°C
36°F
2°C
35°F
2°C
36°F
2°C
37°F
3°C
37°F
3°C
37°F
3°C
36°F
2°C
36°F
2°C
36°F
2°C
37°F
3°C
37°F
3°C
36°F
2°C
35°F
2°C
34°F
1°C
34°F
1°C
33°F
1°C
33°F
1°C
34°F
1°C
35°F
2°C
36°F
2°C
37°F
3°C
29.12 in
986 mb
29.09 in
985 mb
29.06 in
984 mb
29.03 in
983 mb
29 in
982 mb
29 in
982 mb
29.03 in
983 mb
29.06 in
984 mb
29.09 in
985 mb
29.12 in
986 mb
29.15 in
987 mb
29.18 in
988 mb
29.21 in
989 mb
29.23 in
990 mb
29.23 in
990 mb
29.26 in
991 mb
29.26 in
991 mb
29.26 in
991 mb
29.26 in
991 mb
29.26 in
991 mb
29.26 in
991 mb
29.26 in
991 mb
29.26 in
991 mb
29.29 in
992 mb
29.29 in
992 mb
29.29 in
992 mb
29.26 in
991 mb
29.29 in
992 mb
29.29 in
992 mb
29.32 in
993 mb
29.35 in
994 mb
29.38 in
995 mb
29.41 in
996 mb
29.44 in
997 mb
29.47 in
998 mb
29.53 in
1000 mb
29.53 in
1000 mb
29.56 in
1001 mb
29.56 in
1001 mb
29.59 in
1002 mb
29.59 in
1002 mb
29.59 in
1002 mb
29.59 in
1002 mb
29.59 in
1002 mb
29.59 in
1002 mb
29.59 in
1002 mb
29.56 in
1001 mb
29.53 in
1000 mb
65%67%72%73%73%75%79%84%91%92%91%90%91%90%90%91%92%93%91%85%81%82%83%85%81%81%80%80%80%84%91%95%96%97%97%97%97%97%94%92%90%88%88%89%89%88%91%87%
NNENNENNENNENNENENEENESESSESSSSSESEEENENENNENENENENNENNENNNNESSESSESESSSSESESEESEESEEEEENEENEENEENENENE
21 mph
35 km/h
23 mph
38 km/h
24 mph
38 km/h
23 mph
37 km/h
21 mph
33 km/h
20 mph
32 km/h
15 mph
23 km/h
7 mph
11 km/h
6 mph
9 km/h
11 mph
17 km/h
11 mph
18 km/h
9 mph
15 km/h
8 mph
13 km/h
6 mph
10 km/h
4 mph
7 km/h
4 mph
6 km/h
6 mph
9 km/h
6 mph
9 km/h
9 mph
14 km/h
11 mph
17 km/h
10 mph
16 km/h
11 mph
17 km/h
11 mph
17 km/h
10 mph
15 km/h
9 mph
15 km/h
8 mph
13 km/h
6 mph
10 km/h
5 mph
8 km/h
2 mph
3 km/h
3 mph
5 km/h
3 mph
5 km/h
3 mph
5 km/h
4 mph
6 km/h
5 mph
8 km/h
5 mph
9 km/h
5 mph
9 km/h
5 mph
9 km/h
5 mph
8 km/h
5 mph
8 km/h
4 mph
6 km/h
5 mph
9 km/h
6 mph
10 km/h
6 mph
10 km/h
7 mph
11 km/h
7 mph
11 km/h
9 mph
14 km/h
9 mph
14 km/h
11 mph
18 km/h
0%0%0%0%0%0%0%63%0%51%68%89%69%62%56%64%70%61%60%79%84%0%0%87%0%0%53%0%0%81%81%74%71%65%65%67%64%84%77%0%0%0%0%0%0%0%73%79%
6 mi
10 km
6 mi
10 km
6 mi
10 km
6 mi
10 km
6 mi
10 km
6 mi
10 km
6 mi
10 km
6 mi
10 km
6 mi
10 km
6 mi
9 km
1 mi
2 km
6 mi
9 km
1 mi
2 km
1 mi
2 km
6 mi
9 km
6 mi
10 km
6 mi
10 km
6 mi
9 km
1 mi
2 km
1 mi
2 km
6 mi
9 km
6 mi
10 km
6 mi
10 km
6 mi
10 km
6 mi
10 km
6 mi
10 km
1 mi
2 km
6 mi
10 km
6 mi
10 km
1 mi
2 km
1 mi
2 km
1 mi
2 km
4 mi
7 km
6 mi
9 km
6 mi
9 km
4 mi
6 km
1 mi
2 km
1 mi
2 km
4 mi
7 km
6 mi
10 km
6 mi
10 km
6 mi
10 km
6 mi
10 km
6 mi
10 km
6 mi
10 km
6 mi
10 km
1 mi
2 km
3 mi
5 km

Day/Time
Weather
Condition
Temperature
Dew Point
Pressure
Humidity
Wind Direction
Wind Speed
Prob Precip %
Visibility
Prob Precip % = Probability of Precipitation.